Location: Palomar Mountain Lodge
(33.3110°N, 116.8495°W)
Time: 17:19:40
(UTC-07:00)

Meteor 2-21 - Pass Details

Date: 12 July 2018
Orbit: 933 x 967 km, 82.5° (Epoch: 16 July)

Event Time Altitude Azimuth Distance (km) Brightness Sun altitude
Rises 21:53:08 0° 352° (N) 3,608 8.3 -20.1°
Reaches altitude 10° 21:55:37 10° 352° (N) 2,664 7.5 -20.5°
Maximum altitude 22:01:43 82° 265° (W) 961 4.4 -21.4°
Enters shadow 22:04:50 31° 181° (S) 1,598 5.2 -21.8°
